TimeCST,TemperatureF,Dew PointF,Humidity,Sea Level PressureIn,VisibilityMPH,Wind Direction,Wind SpeedMPH,Gust SpeedMPH,PrecipitationIn,Events,Conditions,WindDirDegrees,DateUTC
12:15 AM,37.4,28.4,70,30.34,10.0,Calm,Calm,-,N/A,,Clear,0,2013-02-03 06:15:00
12:35 AM,37.4,28.4,70,30.35,10.0,WNW,4.6,-,N/A,,Clear,290,2013-02-03 06:35:00
12:55 AM,37.4,30.2,75,30.35,10.0,WSW,3.5,-,N/A,,Clear,240,2013-02-03 06:55:00
1:15 AM,39.2,28.4,65,30.34,10.0,WSW,3.5,-,N/A,,Clear,240,2013-02-03 07:15:00
1:35 AM,35.6,28.4,75,30.34,10.0,Calm,Calm,-,N/A,,Clear,0,2013-02-03 07:35:00
2:15 AM,35.6,28.4,75,30.33,10.0,SW,4.6,-,N/A,,Clear,230,2013-02-03 08:15:00
2:35 AM,37.4,28.4,70,30.33,10.0,SSW,6.9,-,N/A,,Clear,210,2013-02-03 08:35:00
2:55 AM,37.4,28.4,70,30.33,10.0,SW,6.9,-,N/A,,Clear,220,2013-02-03 08:55:00
3:15 AM,37.4,28.4,70,30.33,10.0,SSW,4.6,-,N/A,,Clear,210,2013-02-03 09:15:00
3:55 AM,35.6,28.4,75,30.32,10.0,SSW,4.6,-,N/A,,Clear,200,2013-02-03 09:55:00
4:15 AM,33.8,28.4,81,30.31,10.0,SSW,3.5,-,N/A,,Clear,210,2013-02-03 10:15:00
4:35 AM,35.6,28.4,75,30.30,10.0,SW,6.9,-,N/A,,Clear,220,2013-02-03 10:35:00
4:55 AM,37.4,30.2,75,30.30,10.0,SSW,3.5,-,N/A,,Clear,210,2013-02-03 10:55:00
5:15 AM,33.8,28.4,81,30.30,10.0,Calm,Calm,-,N/A,,Clear,0,2013-02-03 11:15:00
5:35 AM,33.8,30.2,87,30.30,10.0,Calm,Calm,-,N/A,,Clear,0,2013-02-03 11:35:00
5:55 AM,33.8,28.4,81,30.30,10.0,Calm,Calm,-,N/A,,Clear,0,2013-02-03 11:55:00
6:15 AM,33.8,30.2,87,30.30,10.0,Calm,Calm,-,N/A,,Clear,0,2013-02-03 12:15:00
6:35 AM,32.0,26.6,80,30.30,10.0,Calm,Calm,-,N/A,,Clear,0,2013-02-03 12:35:00
6:55 AM,35.6,30.2,81,30.30,10.0,Calm,Calm,-,N/A,,Clear,0,2013-02-03 12:55:00
7:15 AM,32.0,28.4,87,30.31,10.0,WSW,6.9,-,N/A,,Clear,240,2013-02-03 13:15:00
7:35 AM,32.0,28.4,87,30.31,10.0,SSW,5.8,-,N/A,,Clear,210,2013-02-03 13:35:00
7:55 AM,35.6,30.2,81,30.32,10.0,SSW,4.6,-,N/A,,Clear,210,2013-02-03 13:55:00
8:15 AM,33.8,28.4,81,30.32,10.0,SSW,4.6,-,N/A,,Clear,210,2013-02-03 14:15:00
8:35 AM,35.6,30.2,81,30.32,10.0,SW,3.5,-,N/A,,Clear,220,2013-02-03 14:35:00
8:55 AM,41.0,32.0,70,30.32,10.0,Calm,Calm,-,N/A,,Clear,0,2013-02-03 14:55:00
9:15 AM,44.6,33.8,66,30.32,10.0,Calm,Calm,-,N/A,,Clear,0,2013-02-03 15:15:00
9:35 AM,51.8,32.0,47,30.31,10.0,South,4.6,-,N/A,,Clear,190,2013-02-03 15:35:00
9:55 AM,53.6,32.0,44,30.31,10.0,SSE,5.8,-,N/A,,Clear,160,2013-02-03 15:55:00
10:15 AM,57.2,30.2,36,30.30,10.0,SSE,6.9,-,N/A,,Clear,160,2013-02-03 16:15:00
10:35 AM,60.8,28.4,29,30.30,10.0,SSE,10.4,-,N/A,,Clear,160,2013-02-03 16:35:00
10:55 AM,64.4,23.0,21,30.29,10.0,South,15.0,18.4,N/A,,Clear,170,2013-02-03 16:55:00
11:15 AM,66.2,19.4,17,30.28,10.0,SSE,11.5,-,N/A,,Clear,160,2013-02-03 17:15:00
11:35 AM,66.2,15.8,14,30.27,10.0,SSE,15.0,-,N/A,,Clear,150,2013-02-03 17:35:00
11:55 AM,68.0,17.6,15,30.26,10.0,South,13.8,21.9,N/A,,Clear,180,2013-02-03 17:55:00
12:15 PM,68.0,17.6,15,30.25,10.0,South,16.1,19.6,N/A,,Clear,170,2013-02-03 18:15:00
12:35 PM,68.0,15.8,13,30.23,10.0,SSE,17.3,20.7,N/A,,Clear,160,2013-02-03 18:35:00
12:55 PM,69.8,15.8,13,30.21,10.0,South,17.3,23.0,N/A,,Clear,180,2013-02-03 18:55:00
1:15 PM,69.8,14.0,12,30.19,10.0,SSE,15.0,21.9,N/A,,Clear,150,2013-02-03 19:15:00
1:35 PM,69.8,14.0,12,30.18,10.0,SSE,16.1,23.0,N/A,,Clear,160,2013-02-03 19:35:00
1:55 PM,69.8,15.8,13,30.16,10.0,South,17.3,26.5,N/A,,Clear,180,2013-02-03 19:55:00
2:15 PM,69.8,17.6,14,30.14,10.0,SSE,13.8,21.9,N/A,,Clear,160,2013-02-03 20:15:00
2:35 PM,68.0,19.4,16,30.13,10.0,South,12.7,23.0,N/A,,Scattered Clouds,170,2013-02-03 20:35:00
2:55 PM,68.0,19.4,16,30.11,10.0,SSE,15.0,24.2,N/A,,Scattered Clouds,150,2013-02-03 20:55:00
3:15 PM,68.0,19.4,16,30.11,10.0,SSE,13.8,24.2,N/A,,Scattered Clouds,160,2013-02-03 21:15:00
3:35 PM,69.8,19.4,15,30.09,10.0,SSE,16.1,20.7,N/A,,Scattered Clouds,150,2013-02-03 21:35:00
3:55 PM,69.8,19.4,15,30.08,10.0,South,18.4,23.0,N/A,,Mostly Cloudy,170,2013-02-03 21:55:00
4:15 PM,68.0,19.4,16,30.07,10.0,South,18.4,24.2,N/A,,Scattered Clouds,180,2013-02-03 22:15:00
4:35 PM,68.0,21.2,17,30.07,10.0,South,15.0,25.3,N/A,,Scattered Clouds,170,2013-02-03 22:35:00
4:55 PM,68.0,21.2,17,30.06,10.0,SSE,16.1,21.9,N/A,,Mostly Cloudy,160,2013-02-03 22:55:00
5:15 PM,68.0,21.2,17,30.05,10.0,South,17.3,21.9,N/A,,Scattered Clouds,170,2013-02-03 23:15:00
5:35 PM,66.2,21.2,18,30.04,10.0,SSE,12.7,-,N/A,,Clear,150,2013-02-03 23:35:00
5:55 PM,64.4,21.2,19,30.04,10.0,SSE,10.4,16.1,N/A,,Scattered Clouds,160,2013-02-03 23:55:00
6:15 PM,64.4,23.0,21,30.04,10.0,South,9.2,-,N/A,,Scattered Clouds,170,2013-02-04 00:15:00
6:55 PM,62.6,24.8,24,30.02,10.0,SSE,11.5,-,N/A,,Clear,150,2013-02-04 00:55:00
7:15 PM,62.6,26.6,26,30.02,10.0,SSE,11.5,-,N/A,,Clear,160,2013-02-04 01:15:00
7:35 PM,62.6,24.8,24,30.01,10.0,SSE,12.7,-,N/A,,Clear,150,2013-02-04 01:35:00
7:55 PM,60.8,24.8,25,29.99,10.0,SSE,17.3,20.7,N/A,,Clear,150,2013-02-04 01:55:00
8:15 PM,60.8,23.0,23,29.99,10.0,SSE,13.8,-,N/A,,Clear,160,2013-02-04 02:15:00
8:35 PM,60.8,23.0,23,29.98,10.0,SSE,16.1,19.6,N/A,,Clear,150,2013-02-04 02:35:00
8:55 PM,60.8,23.0,23,29.97,10.0,SSE,16.1,23.0,N/A,,Clear,150,2013-02-04 02:55:00
9:15 PM,60.8,24.8,25,29.97,10.0,SSE,15.0,-,N/A,,Clear,160,2013-02-04 03:15:00
9:35 PM,60.8,26.6,27,29.96,10.0,SSE,18.4,25.3,N/A,,Clear,160,2013-02-04 03:35:00
9:55 PM,60.8,26.6,27,29.96,10.0,SSE,16.1,23.0,N/A,,Clear,160,2013-02-04 03:55:00
10:15 PM,60.8,28.4,29,29.95,10.0,SSE,15.0,-,N/A,,Clear,160,2013-02-04 04:15:00
10:35 PM,60.8,30.2,31,29.96,10.0,SSE,13.8,21.9,N/A,,Clear,160,2013-02-04 04:35:00
10:55 PM,60.8,32.0,34,29.96,10.0,South,12.7,18.4,N/A,,Clear,170,2013-02-04 04:55:00
11:15 PM,60.8,32.0,34,29.96,10.0,SSE,11.5,-,N/A,,Clear,160,2013-02-04 05:15:00
11:35 PM,60.8,32.0,34,29.96,10.0,SSE,10.4,-,N/A,,Clear,160,2013-02-04 05:35:00
11:55 PM,60.8,32.0,34,29.96,10.0,SSE,6.9,-,N/A,,Clear,150,2013-02-04 05:55:00